Columbus Air Force Base

Airport
ICAO code: 
KCBM
Summary
ICAO Region: 
NAM
Territory: 
Location: 
Columbus, Mississippi,
Coordinates: 
Aerial View: 
33° 38' 38" N, 88° 26' 38" W
Airport LOS: 
Parallel Runway Operation
Metar
Observation
KCBM 241656Z AUTO 00000KT 10SM CLR 11/M00 A2994 RMK AO2 SLP142 T01131005 $
Station
Columbus Air Force Base
Date/Time
2022-01-24 16:56:00
Wind direction
Wind speed
00 kts
Lowest cloud amount
n/a
Temperature
11.3°C
Dew point
-0.5°C
Humidity
44%
Weather condition
n/a

Description

Columbus Air Force Base is a United States Air Force training installation located approximately 14 km north of the central business district of Columbus, Mississippi.

Climatology

Humid “subtropical” climate (Köppen climate classification Cfa) - characterized by hot, humid summers and cool winters. Significant amounts of precipitation occur in all seasons in most areas. Winter rainfall (and sometimes snowfall) is associated with large storms that the westerlies steer from west to east. Most summer rainfall occurs during thunderstorms and occasional tropical storms (hurricanes).

Runways

Designator Length Width Surface Rops
13R/31L 1920 53 CON No/No
13L/31R 2438 46 PEM No/No
13C/31C 3658 91 PEM No/No
Airport map: 
Aerial View: 

SKYbrary Partners:

Safety knowledge contributed by: